Location: Knowlton
(51.2333°N, 1.2667°E)
Time: 03:10:00
(UTC+00:00)

NOSS 3-1 (A) - Pass Details

Date: 18 April 2021
Orbit: 733 x 1479 km, 63.4° (Epoch: 01 May)

Event Time Altitude Azimuth Distance (km) Brightness Sun altitude
Rises 23:40:47 0° 314° (NW) 3,923 7.3 -27.5°
Reaches altitude 10° 23:43:21 10° 310° (NW) 3,065 6.6 -27.5°
Maximum altitude 23:50:33 52° 237° (WSW) 1,571 4.3 -27.6°
Enters shadow 23:51:29 50° 215° (SW) 1,629 4.2 -27.6°
